This is the latest recevied weather packets stored in our database for station/object KG7FOQ-13. If no packets are shown the sender has not sent any weather packets the latest 10 day(s).
| Time | Temp. | Humidity | Pressure | Rain* | Wind** | Luminosity | Snow |
|---|---|---|---|---|---|---|---|
| 1777771802 | 22.22° C | 13% | 1012.8 hPa | 0 mm | - | - | - |
| 1777771533 | 22.22° C | 14% | 1012.9 hPa | 0 mm | - | - | - |
| 1777771502 | 22.22° C | 14% | 1012.9 hPa | 0 mm | - | - | - |
| 1777771201 | 22.78° C | 13% | 1012.9 hPa | 0 mm | - | - | - |
| 1777770901 | 22.78° C | 14% | 1012.9 hPa | 0 mm | - | - | - |
| 1777770602 | 23.33° C | 13% | 1012.9 hPa | 0 mm | - | - | - |
| 1777770300 | 23.89° C | 11% | 1012.9 hPa | 0 mm | - | - | - |
| 1777769999 | 23.33° C | 11% | 1012.9 hPa | 0 mm | - | - | - |
| 1777769699 | 23.89° C | 9% | 1012.9 hPa | 0 mm | - | - | - |
| 1777769398 | 24.44° C | 10% | 1012.9 hPa | 0 mm | - | - | - |
| 1777769098 | 24.44° C | 11% | 1013 hPa | 0 mm | - | - | - |
| 1777768797 | 24.44° C | 9% | 1012.9 hPa | 0 mm | - | - | - |
| 1777768497 | 24.44° C | 10% | 1012.9 hPa | 0 mm | - | - | - |
| 1777768196 | 24.44° C | 10% | 1013 hPa | 0 mm | - | - | - |
| 1777767896 | 24.44° C | 9% | 1013 hPa | 0 mm | - | - | - |
| 1777767595 | 24.44° C | 10% | 1012.9 hPa | 0 mm | - | - | - |
| 1777767294 | 24.44° C | 9% | 1013 hPa | 0 mm | - | - | - |
| 1777766994 | 25° C | 7% | 1013 hPa | 0 mm | - | - | - |
| 1777766693 | 25° C | 7% | 1013 hPa | 0 mm | - | - | - |
| 1777766393 | 24.44° C | 7% | 1013 hPa | 0 mm | - | - | - |
| 1777766092 | 24.44° C | 7% | 1013.2 hPa | 0 mm | - | - | - |
| 1777765835 | 24.44° C | 10% | 1013.2 hPa | 0 mm | - | - | - |
| 1777765792 | 24.44° C | 10% | 1013.2 hPa | 0 mm | - | - | - |
| 1777765491 | 23.89° C | 9% | 1012.9 hPa | 0 mm | - | - | - |
| 1777765190 | 24.44° C | 9% | 1013.2 hPa | 0 mm | - | - | - |
* Rain latest hour (hover to see other rain measurements)
** Current wind speed in m/s (hover to see current wind gust speed)